Theta_e
298 298 298 298 298 299 299 300 301 303 302 303 304 304 304 305 307 308 308 307 307 307 307 309 311 311 310 308 308 306 303 302 303 303 303 301 300 300 297 294 293 292 292 292
299 298 298 299 300 300 301 301 302 304 306 304 305 305 306 307 307 308 309 308 308 309 310 310 310 310 308 307 306 303 302 301 302 301 301 301 301 299 298 295 292 291 291 292
298 298 299 300 302 301 302 303 305 306 309 307 307 307 309 308 308 310 308 309 307 309 309 308 308 308 308 307 304 302 301 300 300 300 302 301 300 296 293 293 292 292 291 291
300 299 300 301 301 303 303 302 302 304 304 304 302 302 308 309 309 308 308 308 308 308 308 307 308 309 307 305 302 299 300 301 300 300 301 299 297 296 295 293 293 293 291 290
299 298 298 298 302 300 300 302 304 302 301 300 301 307 307 306 307 307 307 307 307 307 307 307 308 307 307 306 303 299 298 301 301 301 300 300 299 295 294 293 293 292 291 291
299 299 298 299 300 298 300 304 301 300 300 301 303 311 306 306 307 307 307 306 307 307 307 307 306 308 306 307 306 302 300 300 301 300 299 298 295 294 294 293 293 291 293 292
298 299 298 298 298 297 304 305 298 298 299 300 305 305 306 306 307 307 307 306 305 306 306 306 306 305 305 303 304 304 304 303 300 300 299 298 295 294 293 292 294 293 292 292
296 298 297 299 297 298 298 297 298 298 299 302 304 305 304 305 306 306 306 306 306 305 306 305 304 305 304 304 301 301 301 305 304 302 300 296 295 292 291 291 292 293 294 291
298 299 298 296 297 295 296 296 297 298 301 302 304 305 304 304 305 305 304 303 305 306 305 304 304 304 303 304 302 299 300 302 302 301 299 297 297 294 291 291 291 291 288 289
296 296 298 295 295 297 298 298 299 301 302 303 303 303 304 304 304 305 304 303 303 306 306 305 304 304 304 303 302 301 300 298 298 298 298 297 296 296 291 290 290 290 291 290
297 297 295 297 297 298 297 298 300 301 301 302 302 303 302 302 304 304 304 303 304 305 305 305 304 304 303 302 300 297 297 295 294 295 296 295 294 295 292 294 294 295 291 290
297 295 296 296 297 296 297 300 299 299 299 300 299 299 300 301 302 302 303 304 304 305 305 305 303 304 303 303 299 296 293 293 293 293 292 293 294 293 293 294 294 293 293 291
296 295 296 296 296 298 299 299 298 298 297 297 296 296 297 298 301 302 304 304 305 305 305 304 303 303 303 302 298 295 294 293 292 292 292 293 292 292 292 292 293 292 291 290
295 296 296 299 298 297 298 298 297 297 296 295 295 296 296 296 298 301 304 304 304 304 305 304 303 301 303 302 299 296 294 293 292 292 293 293 292 292 293 292 290 288 287 286
298 298 298 296 296 296 296 297 296 296 296 295 296 296 296 296 298 298 301 302 302 302 301 302 301 300 303 302 301 298 295 294 294 293 293 294 293 293 293 290 288 287 286 286
296 297 296 296 295 295 295 295 295 296 295 296 295 295 295 296 298 299 300 299 301 301 300 300 298 298 300 301 299 297 296 295 295 294 294 293 292 292 290 288 287 288 287 287
295 296 295 295 294 294 294 294 295 295 295 294 295 295 295 296 298 299 299 299 300 300 299 297 295 295 296 298 297 297 297 295 295 294 294 293 293 291 289 288 288 288 287 288
294 294 294 294 294 294 293 293 293 293 294 293 295 295 294 295 295 297 299 300 299 299 298 297 294 294 295 295 296 297 297 297 296 295 294 293 292 291 290 288 288 288 287 288
293 293 293 292 292 292 293 293 293 293 293 294 294 294 294 294 295 296 296 297 297 298 298 297 295 294 294 295 296 297 297 297 295 294 294 293 292 291 290 289 288 288 288 288
293 293 292 292 292 291 292 292 292 292 292 293 294 294 293 294 294 295 296 296 296 297 298 297 297 296 295 295 295 296 296 296 295 294 293 293 292 291 289 289 288 288 288 288
293 292 292 291 291 291 291 291 291 291 291 292 293 293 293 293 294 293 294 295 295 296 297 297 297 296 296 296 295 295 295 294 294 294 293 292 291 290 289 289 288 288 288 287
293 292 292 291 291 291 291 291 289 290 291 292 291 292 293 293 293 293 293 294 295 295 295 296 296 296 296 295 294 294 294 293 293 293 292 292 291 290 289 288 288 287 287 287
290 290 290 289 289 290 290 289 288 288 289 290 290 290 291 292 292 292 293 293 294 295 295 295 295 296 295 294 294 293 293 293 292 292 291 291 290 289 288 287 287 287 287 287
287 286 286 286 287 288 288 288 289 288 288 288 289 288 290 290 292 292 292 292 293 293 294 295 295 295 294 294 293 293 292 292 291 290 289 289 288 288 288 288 288 288 287 287
285 286 287 287 287 288 286 286 287 287 287 288 287 288 288 289 289 291 292 292 293 293 293 294 294 294 293 293 293 293 292 291 290 290 289 289 289 289 288 288 288 288 288 288
285 285 285 285 285 285 285 285 285 286 287 287 287 287 286 287 288 289 291 292 292 293 293 293 293 293 293 293 293 293 292 291 291 290 290 290 290 289 289 289 289 288 288 288
284 283 284 284 284 284 283 283 283 283 284 285 285 285 286 286 287 288 289 291 291 291 292 293 292 292 292 292 292 292 292 292 292 292 291 291 290 290 289 289 289 288 287 286
Wind_Speed
17 21 24 26 27 27 24 25 23 28 33 33 29 26 26 32 32 28 26 24 21 22 21 18 17 15 22 23 27 32 36 37 39 43 40 41 38 34 32 31 32 30 30 27
16 21 22 25 28 27 25 22 20 23 32 27 25 29 28 29 22 23 22 15 14 10 8 6 8 10 15 21 23 21 28 29 32 38 40 38 38 36 34 36 32 31 29 28
17 18 17 16 13 10 14 17 21 21 24 22 23 25 24 23 19 12 9 11 17 12 10 14 12 13 15 20 16 22 22 19 27 33 37 38 39 37 38 35 34 32 29 28
12 16 18 14 15 6 12 20 22 14 23 22 27 37 21 8 10 12 12 10 7 5 8 10 13 12 12 7 9 19 30 28 20 30 33 36 38 37 35 34 32 30 29 27
7 11 19 19 2 10 18 31 6 15 26 29 38 12 11 9 10 8 7 7 8 8 9 10 13 8 15 15 3 6 23 22 24 30 31 35 36 35 36 34 31 30 27 25
11 14 18 10 9 24 24 15 12 24 22 21 24 3 4 19 10 7 6 7 9 9 9 9 10 2 9 18 13 9 11 21 24 30 33 34 34 34 33 33 31 29 27 24
13 17 13 11 16 22 7 8 34 36 32 25 13 12 19 17 14 9 8 9 9 12 12 10 11 7 3 8 15 16 15 16 26 29 30 31 33 32 32 31 29 29 27 25
13 10 9 9 23 7 12 39 36 37 33 28 26 22 19 16 13 12 11 11 11 11 12 11 9 6 3 3 8 15 20 24 24 28 32 34 34 31 29 29 30 26 24 25
7 9 21 30 10 30 34 35 38 32 28 24 24 22 21 18 15 12 11 13 11 10 9 12 13 9 5 5 9 13 17 25 31 35 33 36 35 33 29 27 28 26 26 25
13 9 10 30 32 27 23 29 29 22 21 21 21 22 21 19 16 14 12 12 12 9 8 7 9 11 9 8 8 15 17 22 26 33 37 35 34 35 35 30 28 26 25 25
17 16 21 20 17 25 33 26 24 23 23 20 20 22 22 20 18 16 14 11 10 10 9 9 9 8 9 9 9 16 21 25 28 31 36 37 36 34 34 32 30 27 25 24
12 17 15 29 33 36 27 20 20 22 24 22 20 22 23 22 17 13 11 10 10 9 9 10 12 10 9 8 10 19 24 27 30 32 35 37 34 35 29 28 27 22 21 22
19 22 25 29 34 17 17 17 18 19 17 22 22 21 21 21 18 16 11 10 10 11 8 9 12 12 11 8 9 18 24 27 29 31 33 36 35 34 31 25 21 20 18 18
20 21 16 7 10 16 16 16 17 16 18 18 20 21 21 22 19 15 12 11 11 11 10 10 13 15 14 11 12 16 22 25 28 31 34 36 33 30 29 30 30 26 19 20
16 14 12 9 12 13 14 15 18 19 22 21 22 22 22 26 24 19 12 12 13 14 15 11 15 19 19 17 16 18 22 24 26 29 31 32 31 30 28 27 26 27 26 23
12 7 6 9 12 14 14 15 17 19 22 23 25 26 23 22 23 16 11 13 16 17 17 16 16 23 24 25 24 24 24 25 27 30 30 31 30 27 27 28 28 29 31 32
9 9 10 12 13 14 14 15 16 18 20 22 22 24 25 26 24 17 12 13 15 14 15 10 7 14 22 25 25 27 26 27 27 28 29 29 29 28 28 30 31 32 32 34
5 7 8 10 13 14 15 15 15 17 20 20 21 22 24 24 25 24 18 13 12 10 10 9 2 9 19 22 24 25 24 25 24 26 27 27 28 27 29 28 27 29 31 31
5 7 9 11 12 14 15 17 16 19 21 22 22 20 21 22 22 22 22 14 9 8 6 4 3 8 15 18 20 22 23 23 24 25 24 26 26 25 27 26 26 27 29 30
6 8 10 11 12 14 16 16 16 17 19 21 20 22 21 20 22 20 19 17 9 10 5 3 5 9 13 16 18 20 21 22 24 25 25 25 26 25 26 26 27 27 27 28
8 10 11 13 14 14 16 18 18 17 17 18 21 21 23 22 18 19 17 17 16 10 9 9 9 11 13 15 16 17 18 20 22 23 25 25 26 26 27 28 28 28 27 26
9 11 13 15 17 16 17 19 17 17 17 18 19 20 22 23 21 17 15 14 14 13 6 14 14 13 15 16 17 17 17 19 20 22 24 25 26 28 29 29 29 27 26 26
10 12 14 15 16 16 16 16 17 18 19 19 19 19 20 21 20 18 17 14 13 10 7 7 16 16 15 17 16 17 18 19 21 22 23 25 26 26 27 27 27 27 27 26
11 12 14 15 15 14 14 15 16 17 18 19 19 18 18 21 20 15 15 16 13 10 9 6 11 16 18 19 18 19 19 20 21 21 21 22 23 24 24 25 25 25 25 25
12 13 13 14 14 14 14 15 17 15 17 17 18 18 19 18 18 20 18 17 14 10 10 9 11 13 18 19 21 20 22 23 23 23 22 22 23 23 23 24 24 25 25 26
11 12 12 13 13 14 15 16 16 17 18 21 20 21 23 21 18 20 19 17 15 14 12 11 12 13 15 17 19 22 23 25 26 26 25 24 23 24 25 25 25 26 25 25
11 12 12 13 12 13 16 18 17 18 18 19 22 22 22 23 21 19 20 19 17 16 16 16 17 18 17 18 19 22 24 25 25 25 25 25 26 27 27 27 26 26 25 25
Wind_Direction
274 282 288 286 288 283 278 279 279 285 283 289 295 297 291 291 304 310 310 310 305 285 277 264 254 246 249 254 253 236 221 214 201 187 188 182 177 184 170 178 189 188 186 184
279 278 277 284 283 285 286 282 286 286 287 283 299 307 298 310 309 316 324 334 339 328 301 281 264 249 256 271 248 217 212 200 194 193 189 183 182 180 174 182 181 182 182 182
276 285 291 280 276 291 306 311 309 312 314 332 319 317 304 311 311 333 358 24 355 12 27 344 308 289 259 271 222 200 208 200 200 195 189 185 181 177 179 179 180 182 181 182
265 282 273 284 330 341 306 305 318 324 333 333 324 299 297 349 6 12 4 11 0 327 308 309 297 283 261 240 239 202 208 195 196 190 180 176 174 179 182 181 181 181 181 180
261 278 296 292 79 341 324 309 5 336 332 332 314 326 71 32 354 330 339 357 354 350 341 328 321 304 220 214 193 227 203 200 191 180 178 179 180 179 180 178 180 183 184 186
271 282 284 304 6 340 322 275 0 335 324 308 314 15 316 339 330 335 337 349 357 358 355 345 351 292 249 233 231 167 184 188 180 180 182 178 176 178 179 180 179 178 182 187
266 271 283 294 356 335 278 339 325 317 311 308 334 339 312 312 321 323 324 336 350 354 355 0 356 2 229 228 235 215 191 203 186 185 184 184 177 177 175 176 181 181 182 188
267 259 273 359 342 341 305 301 304 305 307 312 322 327 332 334 329 331 321 324 330 339 346 351 353 352 308 236 194 218 204 192 194 196 191 190 183 174 173 176 180 180 187 184
303 298 316 313 310 299 295 288 294 296 307 320 316 318 320 324 323 322 323 320 307 307 319 326 329 328 323 299 216 200 202 195 198 200 195 193 193 184 171 174 179 177 177 180
289 280 299 306 300 299 314 318 320 324 328 335 333 328 319 311 309 308 309 313 310 279 278 282 303 311 302 295 256 220 209 200 196 192 196 190 192 188 184 177 176 183 187 182
273 282 291 280 297 313 324 324 332 334 335 336 336 337 338 317 304 304 303 305 304 287 267 262 276 276 290 277 258 213 201 199 194 193 193 188 190 192 189 201 200 197 190 191
262 270 299 293 307 314 312 322 338 336 332 338 339 335 336 335 326 314 311 307 303 295 274 250 261 261 269 271 247 207 192 192 193 191 187 185 187 186 197 202 201 201 211 210
263 276 287 292 298 315 329 335 336 339 340 335 338 335 333 329 329 329 325 318 311 309 287 245 234 247 244 240 214 203 199 191 189 187 182 180 184 185 185 191 199 203 200 200
283 291 285 303 320 328 332 334 336 342 347 344 337 339 335 332 326 324 324 320 318 314 301 266 237 232 229 215 192 194 197 192 186 183 182 183 182 182 181 179 177 182 186 191
302 280 288 325 334 334 333 336 340 343 348 348 348 341 341 341 334 323 323 317 317 314 311 275 237 222 226 208 195 185 186 184 185 185 185 185 186 184 182 179 176 175 175 179
331 338 335 335 341 340 341 340 341 338 344 350 349 351 345 342 343 333 323 316 325 328 324 309 245 232 218 200 189 183 180 180 181 184 182 183 181 178 175 177 179 180 177 175
338 345 346 341 344 345 343 340 337 336 336 342 346 350 353 356 355 348 321 312 317 328 333 324 276 237 216 200 187 177 176 179 181 181 180 181 181 181 177 180 183 180 179 181
349 347 346 342 338 333 337 336 337 340 343 338 342 347 354 357 353 352 336 308 300 319 335 352 303 212 198 192 187 178 174 174 179 180 181 182 183 184 183 185 183 180 187 186
359 355 356 353 348 343 338 335 331 338 343 344 345 342 344 349 351 349 349 334 285 326 330 8 113 171 186 186 182 175 174 175 178 183 187 185 184 185 185 183 178 181 191 188
337 340 341 338 339 339 337 335 332 335 338 339 346 350 344 343 347 348 348 353 330 284 280 246 170 168 172 175 179 178 179 183 186 188 188 188 189 188 188 181 182 187 191 194
318 327 327 327 326 330 333 337 340 341 341 345 347 344 344 346 338 344 346 348 345 321 248 210 205 190 184 181 182 186 188 189 192 192 192 191 191 190 186 185 187 193 196 199
314 317 310 310 318 324 330 336 341 348 347 346 345 343 341 339 342 338 340 340 340 345 266 212 201 203 199 192 194 195 195 196 196 195 193 193 192 190 189 191 194 197 200 202
320 320 322 321 321 321 322 332 339 340 345 348 341 341 341 337 335 331 328 325 332 326 329 232 215 207 203 205 207 202 199 194 193 192 192 192 192 192 193 195 198 199 201 202
325 321 321 322 326 324 323 327 328 328 329 337 339 342 341 337 334 332 319 315 321 310 289 272 216 207 205 207 206 203 197 193 192 190 190 191 192 194 197 199 200 200 202 204
327 326 324 326 325 321 321 328 328 323 327 328 331 336 338 340 328 326 314 313 301 292 282 256 233 217 209 208 207 204 200 197 193 192 194 195 194 196 199 201 205 207 209 211
330 326 326 324 319 322 323 325 326 327 323 324 323 322 324 330 330 325 319 303 297 284 263 247 228 216 211 209 211 209 204 202 201 202 202 203 205 208 209 209 211 212 214 214
321 322 319 320 318 317 318 318 316 318 321 320 316 322 321 323 320 321 320 312 288 284 266 248 236 228 221 213 211 211 209 209 209 211 213 213 213 216 215 214 214 213 211 209